This is the latest recevied weather packets stored in our database for station/object KC8RFE-1. If no packets are shown the sender has not sent any weather packets the latest 1 day(s).
| Time | Temp. | Humidity | Pressure | Rain* | Wind** | Luminosity | Snow |
|---|---|---|---|---|---|---|---|
| 1777959809 | 12.22° C | 8% | - | 1.52 mm | 2.68 m/s, 112° | - | - |
| 1777959509 | 12.22° C | 8% | - | 1.78 mm | 1.34 m/s, 185° | - | - |
| 1777959209 | 12.22° C | 8% | - | 1.52 mm | 2.68 m/s, 86° | - | - |
| 1777958909 | 12.22° C | 8% | - | 2.29 mm | 1.79 m/s, 125° | - | - |
| 1777958610 | 12.22° C | 8% | - | 2.29 mm | 1.34 m/s, 83° | - | - |
| 1777958310 | 12.22° C | 8% | - | 3.05 mm | 1.79 m/s, 83° | - | - |
| 1777958010 | 12.22° C | 8% | - | 2.54 mm | 1.34 m/s, 98° | - | - |
| 1777957710 | 12.22° C | 8% | - | 2.54 mm | 2.24 m/s, 72° | - | - |
| 1777957410 | 12.78° C | 8% | - | 2.54 mm | 1.79 m/s, 14° | - | - |
| 1777957110 | 13.33° C | 8% | - | 2.29 mm | 3.58 m/s, 267° | - | - |
| 1777956810 | 13.89° C | 8% | - | 2.29 mm | 3.58 m/s, 272° | - | - |
| 1777956510 | 13.89° C | 8% | - | 2.29 mm | 1.34 m/s, 0° | - | - |
| 1777956210 | 13.89° C | 8% | - | 1.78 mm | 1.34 m/s, 54° | - | - |
| 1777955910 | 13.89° C | 7% | - | 1.52 mm | 1.34 m/s, 82° | - | - |
| 1777955610 | 13.89° C | 7% | - | 0.76 mm | 1.34 m/s, 109° | - | - |
| 1777955310 | 14.44° C | 7% | - | 0.76 mm | 1.34 m/s, 52° | - | - |
| 1777955010 | 14.44° C | 7% | - | 0 mm | 1.34 m/s, 66° | - | - |
| 1777954710 | 14.44° C | 6% | - | 0 mm | 2.68 m/s, 42° | - | - |
| 1777954410 | 15° C | 6% | - | 0 mm | 3.58 m/s, 36° | - | - |
| 1777954110 | 15.56° C | 6% | - | 0 mm | 4.47 m/s, 40° | - | - |
* Rain latest hour (hover to see other rain measurements)
** Current wind speed in m/s (hover to see current wind gust speed)